This demonstration page uses our WeatherBlox Daily Observations layout. Learn more.

Hourly Observations for July 18, 2018

Temp ( °F °C ) Dew Point ( °F °C ) Humidity (%) Winds ( mph kmh ) Pressure ( in mb ) Visibility ( mi km ) Precip ( " mm )
12:15 am 00:15 Partly Cloudy 69 20.6 69 20.5 99 99 E 7 11 30 1016 10 16.0934 0 0
12:35 am 00:35 Clear 69 20.6 69 20.6 100 100 ESE 9 15 30 1016 10 16.0934 0 0
12:55 am 00:55 Partly Cloudy 69 20.6 69 20.6 100 100 ESE 9 15 30 1016 7 11.26538 0 0
1:15 am 01:15 Cloudy 69 20.7 69 20.7 100 100 ESE 8 13 30 1016 7 11.26538 0 0
1:35 am 01:35 Cloudy 69 20.8 69 20.8 100 100 SE 9 15 30 1016 7 11.26538 0 0
1:55 am 01:55 Cloudy 69 20.8 69 20.8 100 100 ESE 9 15 30 1016 7 11.26538 0 0
2:15 am 02:15 Cloudy with Mist and Fog 69 20.8 69 20.8 100 100 ESE 8 13 30 1016 5 8.0467 0 0
2:35 am 02:35 Cloudy 69 20.8 69 20.8 100 100 SE 8 13 30 1016 7 11.26538 0 0
2:55 am 02:55 Cloudy with Mist and Fog 69 20.5 69 20.5 100 100 SE 12 19 29.97 1015 5 8.0467 0 0
3:15 am 03:15 Cloudy with Mist and Fog 68 20.2 68 20.2 100 100 ESE 8 13 29.97 1015 1.75 2.816345 0 0
3:35 am 03:35 Cloudy with Mist and Fog 68 20.1 68 20.1 100 100 SE 10 17 29.97 1015 1.5 2.41401 0 0
3:55 am 03:55 Cloudy with Mist and Fog 68 20.1 68 20.1 100 100 SE 6 9 29.97 1015 1.25 2.011675 0 0
4:15 am 04:15 Cloudy with Mist and Fog 68 20 68 20 100 100 SSE 7 11 30 1016 1 1.60934 0 0
4:35 am 04:35 Cloudy with Mist and Fog 68 20 68 20 100 100 SSE 7 11 30 1016 1 1.60934 0 0
4:55 am 04:55 Cloudy with Mist and Fog 68 20 68 20 100 100 SE 5 7 30 1016 1.25 2.011675 0 0
5:15 am 05:15 Cloudy with Mist and Fog 68 19.8 68 19.8 100 100 SSE 3 6 30.03 1017 5 8.0467 0 0
5:35 am 05:35 Cloudy 68 20 68 20 100 100 Calm 30.03 1017 7 11.26538 0 0
5:55 am 05:55 Cloudy 68 20.1 67 19.7 98 98 Calm 30.03 1017 10 16.0934 0 0
6:15 am 06:15 Cloudy 68 20.1 68 19.9 99 99 NNE 3 6 30.03 1017 7 11.26538 0 0
6:35 am 06:35 Cloudy 68 20 67 19.6 98 98 N 5 7 30.03 1017 10 16.0934 0 0
6:55 am 06:55 Cloudy with Mist and Fog 68 20 68 20 100 100 NNE 7 11 30.03 1017 2.5 4.02335 0 0
7:15 am 07:15 Cloudy with Mist and Fog 68 20.1 68 20.1 100 100 N 6 9 30.03 1017 2.5 4.02335 0 0
7:35 am 07:35 Mostly Cloudy with Mist and Fog 68 20.1 68 20.1 100 100 NNE 3 6 30.03 1017 4 6.43736 0 0
7:55 am 07:55 Sunny with Mist and Fog 68 20.2 68 20 99 99 ENE 3 6 30.03 1017 5 8.0467 0 0
8:15 am 08:15 Sunny 69 20.3 68 20 98 98 ENE 5 7 30.03 1017 7 11.26538 0 0
8:35 am 08:35 Mostly Cloudy with Mist and Fog 68 20.1 68 20 99 99 ENE 7 11 30.03 1017 5 8.0467 0 0
8:55 am 08:55 Cloudy with Thunderstorms 68 20.1 68 20 99 99 Calm 30.03 1017 5 8.0467 0 0
9:15 am 09:15 Cloudy with Rain 68 20.1 68 20 99 99 SSE 6 9 30.03 1017 3 4.82802 0.03 0.762
9:35 am 09:35 Cloudy with Rain 68 20 68 20 100 100 SE 16 26 29.91 1013 2.5 4.02335 0.06 1.524
9:55 am 09:55 Cloudy with Light Rain 68 20 68 20 100 100 SE 13 20 29.91 1013 3 4.82802 0.07 1.778
10:15 am 10:15 Mostly Cloudy with Mist and Fog 68 20.1 68 20.1 100 100 SE 9 15 29.91 1013 5 8.0467 0 0
10:35 am 10:35 Partly Cloudy 71 21.4 70 21.2 99 99 SE 9 15 29.91 1013 10 16.0934 0 0
10:55 am 10:55 Partly Cloudy 73 22.8 69 20.7 88 88 SSE 7 11 29.94 1014 10 16.0934 0 0
11:15 am 11:15 Partly Cloudy 74 23.4 69 20.4 83 83 SSE 9 15 29.91 1013 10 16.0934 0 0
11:35 am 11:35 Mostly Cloudy 73 22.8 68 19.9 84 84 SSE 8 13 29.94 1014 10 16.0934 0 0
11:55 am 11:55 Partly Cloudy 74 23.2 69 20.4 84 84 SE 7 11 29.94 1014 10 16.0934 0 0
12:15 pm 12:15 Partly Cloudy 75 23.8 68 19.8 78 78 SE 8 13 29.91 1013 10 16.0934 0 0
12:35 pm 12:35 Partly Cloudy 75 24.1 68 20.1 78 78 SE 8 13 29.91 1013 10 16.0934 0 0
12:55 pm 12:55 Partly Cloudy 77 24.8 69 20.3 76 76 SE 5 7 29.88 1012 10 16.0934 0 0
1:15 pm 13:15 Mostly Cloudy 77 25.2 69 20.7 76 76 SE 5 7 29.91 1013 10 16.0934 0 0
1:35 pm 13:35 Cloudy 77 25 69 20.3 75 75 SE 5 7 29.91 1013 10 16.0934 0 0
1:55 pm 13:55 Cloudy 77 25.1 69 20.6 76 76 ESE 6 9 29.91 1013 10 16.0934 0 0
2:15 pm 14:15 Cloudy 78 25.8 69 20.5 73 73 SE 3 6 29.88 1012 10 16.0934 0 0
2:35 pm 14:35 Mostly Cloudy 79 26 70 21 74 74 ESE 5 7 29.88 1012 10 16.0934 0 0
2:55 pm 14:55 Mostly Cloudy 79 25.9 68 20.2 71 71 Calm 29.88 1012 10 16.0934 0 0
3:15 pm 15:15 Mostly Cloudy 79 26.2 70 21.1 74 74 SE 7 11 29.88 1012 10 16.0934 0 0
3:35 pm 15:35 Mostly Cloudy 80 26.5 69 20.8 71 71 ESE 5 7 29.88 1012 10 16.0934 0 0
3:55 pm 15:55 Mostly Cloudy 80 26.6 70 21.1 72 72 SE 5 7 29.88 1012 10 16.0934 0 0
4:15 pm 16:15 Cloudy 80 26.7 70 21.1 71 71 SE 7 11 29.88 1012 10 16.0934 0 0
4:35 pm 16:35 Mostly Cloudy 81 27.3 71 21.4 70 70 SE 7 11 29.83 1010 10 16.0934 0 0
4:55 pm 16:55 Partly Cloudy 81 27.3 70 21.2 69 69 SE 6 9 29.83 1010 10 16.0934 0 0
5:15 pm 17:15 Partly Cloudy 82 27.5 71 21.5 70 70 SE 10 17 29.83 1010 10 16.0934 0 0
5:35 pm 17:35 Sunny 82 27.6 71 21.6 70 70 SE 7 11 29.83 1010 10 16.0934 0 0
5:55 pm 17:55 Sunny 82 27.9 71 21.8 69 69 SE 6 9 29.83 1010 10 16.0934 0 0
6:15 pm 18:15 Mostly Cloudy 82 27.8 71 21.6 69 69 SE 6 9 29.8 1009 10 16.0934 0 0
6:35 pm 18:35 Cloudy 83 28.2 71 21.8 68 68 S 9 15 29.8 1009 10 16.0934 0 0
6:55 pm 18:55 Mostly Cloudy 82 28 71 21.5 68 68 S 10 17 29.8 1009 10 16.0934 0 0
7:15 pm 19:15 Sunny 82 28 71 21.8 69 69 SSE 10 17 29.8 1009 10 16.0934 0 0
7:35 pm 19:35 Sunny 82 27.5 72 22.1 72 72 S 8 13 29.77 1008 10 16.0934 0 0
7:55 pm 19:55 Partly Cloudy 81 27 71 21.6 72 72 SSE 13 20 29.77 1008 10 16.0934 0 0
8:15 pm 20:15 Partly Cloudy 79 26.1 71 21.8 77 77 SSE 7 11 29.77 1008 10 16.0934 0 0
8:35 pm 20:35 Partly Cloudy 77 25.2 72 22 82 82 SSE 7 11 29.8 1009 10 16.0934 0 0
8:55 pm 20:55 Mostly Cloudy 77 24.9 72 22 84 84 SSE 6 9 29.8 1009 10 16.0934 0 0
9:15 pm 21:15 Cloudy 76 24.5 72 22.2 87 87 SSE 6 9 29.8 1009 10 16.0934 0 0
9:35 pm 21:35 Partly Cloudy 74 23.5 72 22.2 92 92 SE 5 7 29.8 1009 10 16.0934 0 0
9:55 pm 21:55 Clear 73 22.7 71 21.9 95 95 SSE 5 7 29.8 1009 10 16.0934 0 0
10:15 pm 22:15 Clear 73 23 72 22 94 94 SSE 7 11 29.8 1009 10 16.0934 0 0
10:35 pm 22:35 Clear 73 23 71 21.7 92 92 SSE 7 11 29.83 1010 10 16.0934 0 0
10:55 pm 22:55 Clear 73 22.7 71 21.5 93 93 ESE 6 9 29.83 1010 10 16.0934 0 0
11:15 pm 23:15 Clear with Nearby Thunderstorms 72 22.1 71 21.5 96 96 SE 8 13 29.88 1012 10 16.0934 0 0
11:35 pm 23:35 Mostly Cloudy 71 21.8 68 19.8 88 88 E 25 41 29.88 1012 10 16.0934 0 0
11:55 pm 23:55 Mostly Cloudy 70 20.9 65 18.3 85 85 E 10 17 29.88 1012 10 16.0934 0 0

Powered by AerisWeather